User: anonymous   Login
Location: ???????
(55.7027°N, 37.3832°E)
Time: 02:19:18
(UTC+00:00)
Language:

Cosmos 1703 Rocket - Orbit

View from above orbital plane
View from above orbital plane
View from above satellite
View from above satellite

Ground track
Ground track

The orbit is defined by the following mean orbital elements,

1 16263U          26158.74174166 +.00000000 +00000-0 +56382-4 0 00007
2 16263  82.5027 276.2275 0018631 347.0640 127.1303 14.85594140    06
Epoch (UTC): 07 June 2026 17:48:06
Eccentricity: 0.0018631
inclination: 82.5027°
perigee height: 599 km
apogee height: 625 km
right ascension of ascending node: 276.2275°
argument of perigee: 347.0640°
revolutions per day: 14.85594140
mean anomaly at epoch: 127.1303°

The dashed part of the orbit path shows where the satellite is in the earth's shadow,  

DLR